[[{"header":{"parameterUnit":"m.s-1","parameterCategory":1,"la1":30.2992,"la2":30.254,"lo1":-89.0895,"lo2":-89.0443,"dy":0.0025,"dx":0.0025,"nx":19,"ny":19,"refTime":"2026-03-10T03:00:00:Z","depth":0,"parameterNumber":2,"parameterNumberName":"U-component_of_WINDS"},"data":[0,0,0,-2.0076,-2.0076,-2.0052,-2.0052,-2.0033,-2.0033,0,0,0,0,0,0,0,0,0,0,0,-2.009,-2.009,-2.0076,-2.0076,-2.0052,-2.0052,-2.0033,-2.0033,0,0,0,0,0,0,0,0,0,0,0,-2.009,-2.009,-2.009,-2.0075,-2.0053,-2.0052,-2.0033,-2.0047,0,0,0,0,0,0,0,0,0,0,-2.0067,-2.0087,-2.009,-2.009,-2.0075,-2.0053,-2.0052,-2.0047,-2.0046,-2.0048,0,-2.0053,0,-2.0043,-2.0032,-2.0032,0,0,0,-2.007,-2.0088,-2.0076,-2.009,-2.0075,-2.0053,-2.0061,-2.0046,-2.0045,-2.0047,-2.0053,-2.0052,-2.0043,-2.0032,-2.0032,-2.0066,-2.0067,0,0,-2.0071,-2.0089,-2.0077,-2.0075,-2.008,-2.0062,-2.0061,-2.0045,-2.0053,-2.0053,-2.0051,-2.0042,-2.0032,-2.0032,-2.0066,-2.0066,0,0,0,-2.0079,-2.009,-2.0078,-2.0076,-2.0072,-2.0062,-2.006,-2.0053,-2.0048,-2.0051,-2.0042,-2.0032,-2.0032,-2.0065,-2.0066,-2.0104,0,0,0,-2.0079,-2.0095,-2.0079,-2.009,-2.0072,-2.0062,-2.0069,-2.0049,-2.0047,-2.0042,-2.0032,-2.0032,-2.0065,-2.0066,-2.0102,-2.0118,0,0,0,-2.0089,-2.0096,-2.0095,-2.0091,-2.0081,-2.0062,-2.0056,-2.0048,-2.0042,-2.0032,-2.0032,-2.0065,-2.0066,-2.01,-2.0115,-2.0132,0,0,0,-2.0104,-2.0129,-2.0096,-2.012,-2.0082,-2.0086,-2.0055,-2.0058,-2.0055,-2.0032,-2.0065,-2.0066,-2.0099,-2.0113,-2.013,-2.0148,-2.0158,0,0,-2.0145,-2.0135,-2.0147,-2.0117,-2.0132,-2.0088,-2.0108,-2.0088,-2.0071,-2.0069,-2.0069,-2.0102,-2.0115,-2.0131,-2.0207,-2.0215,0,0,0,-2.0166,-2.0176,-2.0176,-2.0174,-2.0159,-2.0148,-2.0123,-2.0115,-2.0113,-2.0074,-2.0113,-2.012,-2.0129,-2.0136,-2.0143,-2.0149,-2.0071,-2.0071,-2.0071,-2.0249,-2.0226,-2.0245,-2.0219,-2.0218,-2.0192,-2.0188,-2.0173,-2.015,-2.016,-2.0158,-2.0207,-2.0217,-2.0222,-2.0228,-2.0167,-2.0167,-2.0167,-2.0167,-2.0306,-2.0315,-2.0284,-2.0292,-2.0267,-2.0272,-2.0248,-2.0232,-2.0232,-2.0207,-2.0213,-2.0186,-2.0231,-2.0236,-2.017,-2.017,-2.0169,-2.0169,-2.0169,-2.0357,-2.0357,-2.0348,-2.0343,-2.0341,-2.0314,-2.0316,-2.0293,-2.0272,-2.0279,-2.0274,-2.0273,-2.0269,-2.0278,-2.0278,-2.0279,-2.0279,-2.0279,-2.0279,-2.0413,-2.0401,-2.0407,-2.0394,-2.0389,-2.038,-2.0355,-2.0349,-2.0337,-2.032,-2.032,-2.0295,-2.0241,-2.0227,-2.0281,-2.0281,-2.0281,-2.028,-2.028,-2.0477,-2.0459,-2.0467,-2.0463,-2.0445,-2.0444,-2.0416,-2.0407,-2.0399,-2.0401,-2.0374,-2.0339,-2.0326,-2.032,-2.0308,-2.038,-2.038,-2.038,-2.038,-2.0519,-2.0511,-2.0513,-2.0508,-2.0499,-2.0474,-2.0483,-2.0463,-2.0439,-2.0433,-2.0419,-2.0402,-2.0398,-2.0387,-2.038,-2.0369,-2.0455,-2.0455,-2.0455,-2.0556,-2.0546,-2.0558,-2.0536,-2.052,-2.0507,-2.0514,-2.0508,-2.0478,-2.0457,-2.0427,-2.0424,-2.0396,-2.0388,-2.0366,-2.0356,-2.0335,0,0]},{"header":{"parameterUnit":"m.s-1","parameterCategory":1,"la1":30.2992,"la2":30.254,"lo1":-89.0895,"lo2":-89.0443,"dy":0.0025,"dx":0.0025,"nx":19,"ny":19,"refTime":"2026-03-10T03:00:00:Z","depth":0,"parameterNumber":3,"parameterNumberName":"V-component_of_WINDS"},"data":[0,0,0,2.1843,2.1844,2.191,2.191,2.199,2.1991,0,0,0,0,0,0,0,0,0,0,0,2.1822,2.1823,2.1843,2.1844,2.191,2.191,2.199,2.1991,0,0,0,0,0,0,0,0,0,0,0,2.1822,2.1822,2.1823,2.1845,2.191,2.191,2.199,2.1942,0,0,0,0,0,0,0,0,0,0,2.1879,2.1858,2.1822,2.1823,2.1845,2.191,2.191,2.1939,2.1945,2.196,0,2.1973,0,2.1983,2.1996,2.1997,0,0,0,2.1845,2.1854,2.1873,2.1823,2.1846,2.191,2.1881,2.1942,2.1948,2.1967,2.1974,2.1977,2.1985,2.1997,2.1997,2.2082,2.2083,0,0,2.1842,2.1833,2.1869,2.1877,2.1867,2.1878,2.1883,2.1946,2.1953,2.1974,2.1979,2.1986,2.1997,2.1998,2.2082,2.2082,0,0,0,2.1831,2.183,2.1848,2.1873,2.1885,2.188,2.1885,2.195,2.1957,2.198,2.1987,2.1998,2.1999,2.2082,2.2082,2.2093,0,0,0,2.1829,2.1824,2.1846,2.1841,2.1884,2.1919,2.1888,2.1953,2.196,2.1987,2.1998,2.2,2.2081,2.2082,2.2092,2.2099,0,0,0,2.1818,2.1823,2.1832,2.1841,2.1869,2.1918,2.1928,2.1954,2.1964,2.1997,2.2,2.2081,2.2082,2.2091,2.2098,2.2121,0,0,0,2.1804,2.1839,2.1832,2.1873,2.1868,2.1924,2.1928,2.197,2.1998,2.1998,2.2081,2.2082,2.209,2.2097,2.2119,2.2139,2.2146,0,0,2.1843,2.1843,2.1868,2.1864,2.1919,2.1915,2.1971,2.2005,2.2015,2.2059,2.2062,2.2092,2.2097,2.212,2.2187,2.2192,0,0,0,2.1877,2.1895,2.1911,2.1939,2.1967,2.1992,2.2018,2.2031,2.2069,2.2036,2.2106,2.2109,2.2123,2.2133,2.2138,2.2151,2.2086,2.2086,2.2086,2.1918,2.1931,2.1974,2.1995,2.2022,2.205,2.2073,2.2095,2.2098,2.2115,2.2128,2.2167,2.2178,2.2182,2.2195,2.2138,2.2138,2.2138,2.2138,2.1977,2.2005,2.2011,2.2054,2.2068,2.2104,2.2132,2.2134,2.217,2.2157,2.217,2.2156,2.2188,2.22,2.2139,2.2139,2.2139,2.2139,2.2139,2.2007,2.2023,2.2038,2.2081,2.2113,2.2132,2.2167,2.2177,2.2187,2.2199,2.2216,2.2216,2.2218,2.2206,2.2206,2.2206,2.2207,2.2207,2.2207,2.2032,2.205,2.2078,2.2112,2.2132,2.2159,2.2188,2.2208,2.2233,2.2237,2.2238,2.2241,2.2188,2.2175,2.2209,2.2209,2.2208,2.2208,2.2208,2.2089,2.2078,2.2123,2.2143,2.2184,2.2215,2.2228,2.2267,2.2285,2.2302,2.2303,2.2262,2.2262,2.2259,2.2248,2.2299,2.2299,2.2299,2.2299,2.2116,2.2117,2.2166,2.2198,2.223,2.2247,2.2297,2.232,2.2342,2.2354,2.2348,2.2334,2.233,2.2334,2.2328,2.2319,2.2386,2.2386,2.2387,2.2152,2.2158,2.2199,2.2221,2.2254,2.2282,2.233,2.2367,2.2389,2.239,2.2364,2.236,2.2339,2.2331,2.2333,2.2324,2.2307,0,0]}]]